Location: Howard City Library
(37.4684°N, 96.2639°W)
Time: 09:15:57
(UTC+00:00)

STARLINK-74 - Pass Details

Date: 18 February 2020
Orbit: 529 x 530 km, 53.0° (Epoch: 10 April)

Event Time Altitude Azimuth Distance (km) Brightness Sun altitude
Rises 01:46:13 0° 240° (WSW) 2,653 8.1 -20.5°
Reaches altitude 10° 01:48:28 10° 245° (WSW) 1,767 7.1 -20.9°
Maximum altitude 01:52:22 50° 322° (NW) 679 4.2 -21.7°
Enters shadow 01:53:26 38° 9° (N) 812 4.3 -21.9°
